User: anonymous
Location: Plymouth
(43.7570°N, 71.6890°W)
Time: 08:51:22
(UTC-04:00)
Language:

Meteor 1-28 Rocket - Orbit

View from above orbital plane
View from above orbital plane
View from above satellite
View from above satellite

Ground track
Ground track

The orbit data is extracted from the following two-line orbital elements,

1 10114U 77057B   14237.48737273  .00001096  00000-0  64458-4 0  3251
2 10114 097.2615 094.5701 0013465 303.1532 056.8407 15.13557830 28043
Epoch (UTC): 25 August 2014 11:41:49
Eccentricity: 0.0013465
inclination: 97.2615°
perigee height: 516 km
apogee height: 534 km
right ascension of ascending node: 94.5701°
argument of perigee: 303.1532°
revolutions per day: 15.13557830
mean anomaly at epoch: 56.8407°
orbit number at epoch: 2804

The dashed part of the orbit path shows where the satellite is in the earth's shadow,  

DLR